Location: Dennis Manor
(64.8292°N, 147.5397°W)
Time: 07:57:55
(UTC+00:00)

Envisat - Pass Details

Date: 29 October 2020
Orbit: 764 x 766 km, 98.1° (Epoch: 05 December)

Event Time Altitude Azimuth Distance (km) Brightness Sun altitude
Rises 03:44:52 0° 197° (SSW) 3,231 6.5 -13.4°
Reaches altitude 10° 03:47:26 10° 209° (SSW) 2,308 5.9 -13.7°
Maximum altitude 03:51:53 30° 270° (W) 1,367 5.2 -14.2°
Drops below altitude 10° 03:56:21 10° 331° (NNW) 2,321 5.9 -14.7°
Sets 03:58:58 0° 342° (NNW) 3,251 6.5 -14.9°
